Location: Bydgoszcz
(53.1235°N, 18.0084°E)
Time: 20:29:47
(UTC+02:00)

ISS - Visible Passes

Search period start: 20 September 2017 00:00
Search period end: 30 September 2017 00:00
Orbit: 402 x 407 km, 51.6° (Epoch: 21 September)

Date Brightness Start Highest point End Pass type
(mag) Time Alt. Az. Time Alt. Az. Time Alt. Az.
20 Sep -1.1 04:16:10 11° SSE 04:16:10 11° SSE 04:16:16 10° SSE visible
26 Sep -1.6 20:28:53 10° SSW 20:29:43 14° S 20:29:43 14° S visible
27 Sep -1.9 19:37:26 10° S 19:39:16 14° SE 19:39:51 14° SE visible
27 Sep -1.1 21:12:01 10° SW 21:12:32 14° SW 21:12:32 14° SW visible
28 Sep -2.8 20:19:53 10° SW 20:22:29 31° S 20:22:29 31° S visible
29 Sep -2.4 19:27:55 10° SSW 19:30:36 23° SSE 19:32:19 16° ESE visible
29 Sep -1.9 21:03:27 10° WSW 21:04:58 24° WSW 21:04:58 24° WSW visible
